KF7PIZ Weather Reports


time (UTC)temp
C
wind
direction
speed
KPH
gust
KPH
rain 1hr
cm
rain 24hr
cm
rain mn
cm
humidity
%
barometer
mb
20260503050508 11 147 0.0 0.0 0.00 0.10 0.10 89 1017.1
20260503050006 11 148 0.0 0.0 0.00 0.10 0.10 89 1017.1
20260503045503 11 148 0.0 0.0 0.00 0.10 0.10 88 1017.4
20260503045000 11 148 0.0 0.0 0.00 0.10 0.10 88 1017.5
20260503044457 11 148 0.0 0.0 0.00 0.10 0.10 87 1017.8
20260503043954 11 151 0.0 0.0 0.00 0.10 0.10 87 1017.2
20260503043450 11 151 0.0 0.0 0.00 0.10 0.10 86 1017.2
20260503042947 12 149 0.0 0.0 0.00 0.10 0.10 85 1017.4
20260503042444 12 151 0.0 0.0 0.00 0.10 0.10 82 1017.2
20260503041940 11 158 0.0 0.0 0.00 0.10 0.10 81 1016.9
20260503041437 11 161 0.0 0.0 0.00 0.10 0.10 87 1017.1
20260503040935 11 154 0.0 0.0 0.00 0.10 0.10 88 1017.0
20260503040432 11 149 0.0 0.0 0.00 0.10 0.10 89 1016.8
20260503035929 11 147 0.0 0.0 0.00 0.10 0.10 88 1016.5
20260503035426 11 147 0.0 0.0 0.00 0.10 0.10 87 1016.6
20260503034923 12 147 0.0 0.0 0.13 0.10 0.10 86 1016.8
20260503034421 12 150 0.0 0.0 0.00 0.08 0.08 85 1016.8
20260503033918 12 150 0.0 0.0 0.00 0.08 0.08 82 1017.1
20260503033415 12 152 0.0 0.0 0.00 0.08 0.08 81 1017.0
20260503032913 12 153 0.0 0.0 0.18 0.08 0.08 80 1017.1
20260503032412 13 147 0.0 0.0 0.18 0.08 0.08 79 1017.1
20260503031909 13 146 0.0 0.0 0.18 0.05 0.05 77 1016.9
20260503031406 13 146 0.0 0.0 0.00 0.03 0.03 75 1017.0
20260503030903 13 152 0.0 0.0 0.00 0.03 0.03 70 1017.0
20260503030359 14 147 0.0 0.0 0.00 0.03 0.03 67 1017.3
20260503025855 14 142 0.0 0.0 0.00 0.03 0.03 62 1016.9
20260503025353 14 147 0.0 0.0 0.00 0.03 0.03 62 1016.4
20260503024850 14 147 0.0 0.0 0.00 0.03 0.03 62 1016.5
20260503024346 15 156 0.0 0.0 0.00 0.03 0.03 61 1016.5
20260503023843 15 171 0.0 0.0 0.00 0.03 0.03 60 1016.1
20260503023341 15 156 0.0 0.0 0.00 0.03 0.03 61 1015.8
20260503022838 15 212 0.0 1.6 0.00 0.03 0.03 60 1016.1
20260503022338 15 174 0.0 0.0 0.00 0.03 0.03 61 1015.6
20260503021835 15 181 1.6 3.2 0.00 0.03 0.03 61 1015.8
20260503021331 15 162 0.0 0.0 0.00 0.03 0.03 61 1015.5
20260503020828 15 147 0.0 0.0 0.00 0.03 0.03 62 1015.4
20260503020326 15 148 0.0 0.0 0.00 0.03 0.03 61 1015.5
20260503015822 15 168 0.0 0.0 0.00 0.03 0.03 61 1015.7
20260503015319 15 153 0.0 1.6 0.00 0.03 0.03 60 1015.5
20260503014815 15 145 0.0 0.0 0.00 0.03 0.03 60 1015.4
20260503014313 15 1 0.0 1.6 0.00 0.03 0.03 60 1015.5
20260503013810 16 143 0.0 0.0 0.00 0.03 0.03 60 1015.4
20260503013308 16 174 0.0 0.0 0.00 0.03 0.03 59 1015.5
20260503012804 16 164 0.0 0.0 0.00 0.03 0.03 57 1015.4
20260503012305 16 148 0.0 0.0 0.00 0.03 0.03 58 1015.5
20260503011758 16 146 0.0 0.0 0.00 0.03 0.03 59 1015.3
20260503011255 16 145 0.0 0.0 0.00 0.03 0.03 61 1015.4
20260503010752 16 161 0.0 0.0 0.00 0.03 0.03 56 1015.4
20260503010249 16 147 0.0 0.0 0.00 0.03 0.03 59 1015.4
20260503005746 15 183 0.0 1.6 0.00 0.03 0.03 60 1015.5
20260503005243 15 146 0.0 0.0 0.00 0.03 0.03 59 1015.3
20260503004739 15 155 0.0 0.0 0.00 0.03 0.03 61 1015.5
20260503004237 15 80 0.0 1.6 0.00 0.03 0.03 61 1015.5
20260503003734 15 162 0.0 1.6 0.00 0.03 0.03 65 1016.0
20260503003231 15 148 0.0 0.0 0.13 0.03 0.03 65 1015.7
20260503002728 15 143 0.0 0.0 0.13 0.03 0.03 64 1015.7
20260503002225 15 113 0.0 1.6 0.00 0.00 0.00 66 1015.3
20260503001721 17 107 0.0 1.6 0.00 0.00 0.00 56 1015.0
20260503001218 18 109 3.2 4.8 0.00 0.00 0.00 40 1014.8
20260503000716 19 115 0.0 1.6 0.00 0.00 0.00 36 1014.5
20260503000213 20 138 0.0 0.0 0.00 0.00 0.00 34 1014.4
20260502235710 19 75 0.0 1.6 0.00 0.00 0.00 33 1014.0
20260502235208 19 197 0.0 0.0 0.00 0.00 0.00 35 1014.0
20260502234703 19 149 0.0 0.0 0.00 0.00 0.00 37 1014.4
20260502234201 19 150 0.0 0.0 0.00 0.00 0.00 37 1014.4
20260502233656 19 145 0.0 0.0 0.00 0.00 0.00 39 1014.4
20260502233154 18 133 0.0 0.0 0.00 0.00 0.00 42 1014.6
20260502232649 19 152 0.0 0.0 0.00 0.00 0.00 51 1014.6
20260502232147 21 115 0.0 0.0 0.00 0.00 0.00 31 1014.4
20260502231643 21 140 0.0 1.6 0.00 0.00 0.00 30 1014.4
20260502231141 21 154 0.0 0.0 0.00 0.00 0.00 29 1014.1
20260502230640 22 157 0.0 0.0 0.00 0.00 0.00 30 1014.2
20260502230138 22 158 0.0 1.6 0.00 0.00 0.00 28 1014.0
20260502225633 22 155 0.0 0.0 0.00 0.00 0.00 30 1014.1
20260502225131 22 169 0.0 0.0 0.00 0.00 0.00 28 1014.0
20260502224626 22 197 0.0 0.0 0.00 0.00 0.00 28 1014.6
20260502224123 22 203 1.6 1.6 0.00 0.00 0.00 28 1014.2
20260502223621 22 177 0.0 3.2 0.00 0.00 0.00 29 1014.7
20260502223119 22 198 1.6 1.6 0.00 0.00 0.00 28 1014.6
20260502222617 22 176 0.0 0.0 0.00 0.00 0.00 28 1014.5
20260502222112 22 214 0.0 0.0 0.00 0.00 0.00 29 1014.8
20260502221608 21 172 0.0 0.0 0.00 0.00 0.00 31 1014.6
20260502221106 21 177 0.0 1.6 0.00 0.00 0.00 30 1014.7
20260502220602 21 172 0.0 1.6 0.00 0.00 0.00 30 1014.8
20260502220058 21 198 0.0 0.0 0.00 0.00 0.00 30 1015.0
20260502215555 21 170 0.0 0.0 0.00 0.00 0.00 30 1014.9
20260502215052 21 170 0.0 0.0 0.00 0.00 0.00 29 1015.2
20260502214549 21 152 0.0 0.0 0.00 0.00 0.00 28 1015.3
20260502214047 21 197 0.0 0.0 0.00 0.00 0.00 27 1015.5
20260502213543 21 176 0.0 1.6 0.00 0.00 0.00 27 1015.3
20260502213041 21 193 0.0 0.0 0.00 0.00 0.00 28 1015.2
20260502212540 21 161 1.6 1.6 0.00 0.00 0.00 27 1015.4
20260502212037 21 185 1.6 3.2 0.00 0.00 0.00 27 1015.5
20260502211532 21 171 1.6 3.2 0.00 0.00 0.00 27 1015.7
20260502211030 21 146 1.6 1.6 0.00 0.00 0.00 29 1015.6
20260502210527 21 164 0.0 0.0 0.00 0.00 0.00 28 1015.5
20260502210024 21 143 0.0 0.0 0.00 0.00 0.00 28 1015.3
20260502205521 21 164 0.0 0.0 0.00 0.00 0.00 29 1015.5
20260502205018 21 192 0.0 0.0 0.00 0.00 0.00 29 1015.8
20260502204515 22 187 0.0 0.0 0.00 0.00 0.00 30 1015.5
20260502204013 22 198 0.0 0.0 0.00 0.00 0.00 29 1015.7
20260502203509 22 172 0.0 0.0 0.00 0.00 0.00 28 1015.6
20260502203006 22 144 0.0 0.0 0.00 0.00 0.00 29 1015.6
20260502202502 22 214 0.0 1.6 0.00 0.00 0.00 28 1015.7
20260502202001 22 171 0.0 0.0 0.00 0.00 0.00 27 1015.8
20260502201456 22 164 0.0 1.6 0.00 0.00 0.00 27 1015.7
20260502200953 22 156 0.0 0.0 0.00 0.00 0.00 27 1015.7
20260502200449 22 158 0.0 0.0 0.00 0.00 0.00 29 1016.2
20260502195947 22 195 0.0 0.0 0.00 0.00 0.00 29 1015.8
20260502195444 23 137 0.0 0.0 0.00 0.00 0.00 25 1016.1
20260502194940 23 148 0.0 0.0 0.00 0.00 0.00 26 1016.0
20260502194437 23 166 0.0 0.0 0.00 0.00 0.00 28 1016.0
20260502193932 22 178 0.0 0.0 0.00 0.00 0.00 27 1016.0
20260502193430 22 124 0.0 0.0 0.00 0.00 0.00 26 1016.0
20260502192925 23 224 0.0 1.6 0.00 0.00 0.00 26 1016.0
20260502192423 23 254 0.0 1.6 0.00 0.00 0.00 25 1016.3
20260502191920 23 161 0.0 0.0 0.00 0.00 0.00 26 1016.2
20260502191418 23 221 0.0 3.2 0.00 0.00 0.00 27 1016.2
20260502190915 23 170 3.2 3.2 0.00 0.00 0.00 24 1016.2
20260502190412 24 149 0.0 0.0 0.00 0.00 0.00 28 1016.2
20260502185908 23 93 0.0 1.6 0.00 0.00 0.00 25 1016.2
20260502185403 25 151 0.0 0.0 0.00 0.00 0.00 26 1016.2
20260502184901 25 152 0.0 0.0 0.00 0.00 0.00 27 1016.4
20260502184356 23 141 0.0 0.0 0.00 0.00 0.00 27 1016.2
20260502183853 22 151 0.0 0.0 0.00 0.00 0.00 31 1016.2
20260502183349 21 150 0.0 0.0 0.00 0.00 0.00 31 1016.5
20260502182844 22 154 0.0 0.0 0.00 0.00 0.00 34 1016.4
20260502182340 21 150 0.0 0.0 0.00 0.00 0.00 34 1016.8
20260502181837 21 157 0.0 0.0 0.00 0.00 0.00 32 1016.8
20260502181336 21 174 0.0 0.0 0.00 0.00 0.00 32 1016.5
20260502180833 22 101 0.0 0.0 0.00 0.00 0.00 31 1016.8
20260502180330 21 146 0.0 0.0 0.00 0.00 0.00 32 1016.9
20260502170249 18 144 0.0 0.0 0.00 0.00 0.00 37 1017.2
20260502164236 18 145 0.0 0.0 0.00 0.00 0.00 35 1017.2
20260502163732 17 148 0.0 0.0 0.00 0.00 0.00 38 1017.2
20260502163229 17 143 0.0 0.0 0.00 0.00 0.00 35 1017.2
20260502162726 17 151 0.0 0.0 0.00 0.00 0.00 37 1017.2
20260502162222 17 152 0.0 0.0 0.00 0.00 0.00 37 1017.0
20260502161720 15 150 0.0 0.0 0.00 0.00 0.00 40 1017.1
20260502161216 15 151 0.0 0.0 0.00 0.00 0.00 41 1017.2
20260502160714 15 146 0.0 0.0 0.00 0.00 0.00 40 1017.2
20260502160213 15 151 0.0 0.0 0.00 0.00 0.00 39 1017.1
20260502152132 13 151 0.0 0.0 0.00 0.00 0.00 50 1017.2
20260502151630 13 152 0.0 0.0 0.00 0.00 0.00 50 1017.3
20260502151126 12 152 0.0 0.0 0.00 0.00 0.00 52 1017.5
20260502150624 11 153 0.0 0.0 0.00 0.00 0.00 55 1017.4
20260502150120 11 153 0.0 0.0 0.00 0.00 0.00 55 1017.4
20260502130509 6 140 0.0 0.0 0.00 0.00 0.00 66 1016.6
20260502123451 6 140 0.0 0.0 0.00 0.00 0.00 64 1016.8
20260502122948 6 140 0.0 0.0 0.00 0.00 0.00 64 1016.3
20260502122444 6 140 0.0 0.0 0.00 0.00 0.00 64 1016.5
20260502121943 6 140 0.0 0.0 0.00 0.00 0.00 63 1016.5
20260502121440 6 140 0.0 0.0 0.00 0.00 0.00 61 1016.3
20260502120937 7 140 0.0 0.0 0.00 0.00 0.00 62 1016.2
20260502120433 7 140 0.0 0.0 0.00 0.00 0.00 62 1016.4
20260502115930 7 140 0.0 0.0 0.00 0.00 0.00 61 1016.2
20260502115428 7 140 0.0 0.0 0.00 0.00 0.00 61 1016.4
20260502114923 7 140 0.0 0.0 0.00 0.00 0.00 60 1016.3
20260502114421 7 140 0.0 0.0 0.00 0.00 0.00 59 1016.4
20260502113918 7 140 0.0 0.0 0.00 0.00 0.00 58 1016.4
20260502113416 7 140 0.0 0.0 0.00 0.00 0.00 59 1016.4
20260502112914 7 140 0.0 0.0 0.00 0.00 0.00 58 1016.3
20260502112411 7 140 0.0 0.0 0.00 0.00 0.00 57 1016.5
20260502111908 7 140 0.0 0.0 0.00 0.00 0.00 59 1016.3
20260502111405 7 140 0.0 0.0 0.00 0.00 0.00 56 1016.5
20260502110903 7 140 0.0 0.0 0.00 0.00 0.00 54 1016.3
20260502110401 7 140 0.0 0.0 0.00 0.00 0.00 51 1016.2
20260502105858 7 140 0.0 0.0 0.00 0.00 0.00 53 1016.2
20260502105354 7 141 0.0 0.0 0.00 0.00 0.00 53 1016.2
20260502104852 8 141 0.0 0.0 0.00 0.00 0.00 53 1016.5
20260502104350 8 141 0.0 0.0 0.00 0.00 0.00 53 1016.3
20260502103847 8 141 0.0 0.0 0.00 0.00 0.00 52 1016.4
20260502103344 8 141 0.0 0.0 0.00 0.00 0.00 53 1016.0
20260502102841 8 140 0.0 0.0 0.00 0.00 0.00 52 1016.1
20260502102337 8 141 0.0 0.0 0.00 0.00 0.00 52 1016.3
20260502101835 8 141 0.0 0.0 0.00 0.00 0.00 53 1016.3
20260502101333 8 141 0.0 0.0 0.00 0.00 0.00 54 1016.1
20260502100831 8 141 0.0 0.0 0.00 0.00 0.00 54 1016.2
20260502100331 8 141 0.0 0.0 0.00 0.00 0.00 53 1016.1
20260502091304 9 149 0.0 0.0 0.00 0.00 0.00 45 1016.5
20260502090801 10 150 0.0 0.0 0.00 0.00 0.00 46 1016.8
20260502090258 10 156 0.0 0.0 0.00 0.00 0.00 45 1016.6
20260502071159 12 146 0.0 0.0 0.00 0.00 0.00 39 1017.3
20260502070657 12 146 0.0 0.0 0.00 0.00 0.00 37 1017.3
20260502070154 12 153 0.0 0.0 0.00 0.00 0.00 36 1017.3
20260502065653 12 162 0.0 0.0 0.00 0.00 0.00 39 1017.4
20260502065150 12 143 0.0 0.0 0.00 0.00 0.00 41 1017.1
20260502064649 12 142 0.0 0.0 0.00 0.00 0.00 39 1017.2
20260502064145 12 142 0.0 0.0 0.00 0.00 0.00 39 1017.3
20260502063643 12 143 0.0 0.0 0.00 0.00 0.00 37 1017.1
20260502063141 12 143 0.0 0.0 0.00 0.00 0.00 35 1016.9
20260502062637 13 144 0.0 0.0 0.00 0.00 0.00 36 1017.1
20260502062135 13 144 0.0 0.0 0.00 0.00 0.00 34 1017.1
20260502061633 13 144 0.0 0.0 0.00 0.00 0.00 32 1016.9
20260502061131 13 149 0.0 0.0 0.00 0.00 0.00 31 1017.1
20260502060630 14 151 0.0 0.0 0.00 0.00 0.00 31 1017.1
20260502060127 15 155 0.0 0.0 0.00 0.00 0.00 29 1017.0
20260502055625 15 155 0.0 0.0 0.00 0.00 0.00 29 1017.2
20260502055123 15 152 0.0 0.0 0.00 0.00 0.00 27 1016.9
20260502054622 15 154 0.0 0.0 0.00 0.00 0.00 25 1016.9
20260502054119 15 158 0.0 0.0 0.00 0.00 0.00 26 1017.2
20260502053616 16 148 0.0 0.0 0.00 0.00 0.00 25 1017.2
20260502053113 16 153 0.0 0.0 0.00 0.00 0.00 24 1017.1
20260502052611 16 155 0.0 0.0 0.00 0.00 0.00 24 1017.1
20260502052109 16 161 0.0 0.0 0.00 0.00 0.00 25 1017.1
20260502051607 16 157 0.0 0.0 0.00 0.00 0.00 23 1017.1
20260502051105 17 155 0.0 0.0 0.00 0.00 0.00 23 1017.1